[[{"header":{"parameterUnit":"m.s-1","parameterCategory":1,"la1":30.2991,"la2":30.254,"lo1":-89.0895,"lo2":-89.0444,"dy":0.0017,"dx":0.0017,"nx":28,"ny":28,"refTime":"2024-04-30T03:00:00:Z","depth":0,"parameterNumber":2,"parameterNumberName":"U-component_of_WINDS"},"data":[0,0,0,0,0,0,0,0,0,0,0,0,0,0,0,0,0,0,0,0,0,0,0,0,0,0,0,0,0,0,0,0,0,0,0,0,0,0,0,0,0,0,0,0,0,0,0,0,0,0,0,0,0,0,0,0,0,0,-0.4462,-0.4461,0,-0.4405,-0.4404,-0.4404,-0.4381,-0.4381,-0.4381,-0.4382,-0.4322,-0.432,-0.4319,0,0,0,0,0,0,0,0,0,0,0,0,0,-0.455,-0.4548,-0.4462,-0.4461,-0.446,-0.4405,-0.4404,-0.4403,-0.4381,-0.4381,-0.4382,-0.4382,-0.4323,-0.4321,-0.4319,0,0,0,0,0,0,0,0,0,0,0,0,0,-0.4504,-0.4548,-0.4462,-0.4443,-0.444,-0.4405,-0.4404,-0.4403,-0.4381,-0.4381,-0.4382,-0.4382,-0.4323,-0.4321,-0.4318,-0.4298,0,0,-0.431,-0.4309,0,0,0,0,0,0,0,0,-0.4507,-0.4501,-0.4446,-0.4444,-0.4441,-0.44,-0.4413,-0.4368,-0.4381,-0.4404,-0.4382,-0.4382,-0.4348,-0.4343,-0.4332,-0.4295,-0.4292,-0.431,-0.4309,-0.4307,-0.4307,0,0,0,0,0,0,0,-0.451,-0.4503,-0.4439,-0.4445,-0.4442,-0.4436,-0.443,-0.4405,-0.4375,-0.4402,-0.44,-0.4394,-0.4347,-0.4335,-0.4331,-0.4292,-0.431,-0.4308,-0.4306,-0.4305,-0.4234,-0.4234,0,0,0,0,0,0,-0.4517,-0.4506,-0.4441,-0.4438,-0.4475,-0.4435,-0.4428,-0.4413,-0.4375,-0.437,-0.4393,-0.4393,-0.4339,-0.4334,-0.4328,-0.4302,-0.4307,-0.4305,-0.4304,-0.4235,-0.4234,-0.4234,0,0,0,0,0,0,-0.4519,-0.4511,-0.4443,-0.4471,-0.4462,-0.4433,-0.4417,-0.4412,-0.44,-0.4369,-0.4364,-0.4387,-0.4339,-0.4332,-0.4306,-0.4299,-0.4304,-0.4302,-0.4235,-0.4235,-0.4234,-0.4248,0,0,0,0,0,0,-0.4521,-0.4512,-0.4504,-0.4471,-0.4461,-0.4422,-0.4417,-0.4411,-0.4396,-0.4394,-0.4361,-0.4356,-0.4339,-0.431,-0.4303,-0.4296,-0.4299,-0.4236,-0.4235,-0.4234,-0.4248,-0.4248,-0.4249,0,0,0,0,0,-0.4524,-0.451,-0.4504,-0.4496,-0.4451,-0.4422,-0.4416,-0.4396,-0.4395,-0.4387,-0.4367,-0.4357,-0.4301,-0.4307,-0.4299,-0.4291,-0.4236,-0.4235,-0.4234,-0.4248,-0.4248,-0.4249,0,0,0,0,0,0,-0.4542,-0.4505,-0.4498,-0.4473,-0.4451,-0.4418,-0.4407,-0.4397,-0.4374,-0.4374,-0.435,-0.4343,-0.4318,-0.4302,-0.4309,-0.4269,-0.4268,-0.4265,-0.4281,-0.4281,-0.4281,-0.4285,-0.4297,0,0,0,0,0,-0.4544,-0.4524,-0.4492,-0.4473,-0.4462,-0.4437,-0.4423,-0.441,-0.4386,-0.4376,-0.4355,-0.4331,-0.4308,-0.4294,-0.4271,-0.4246,-0.4238,-0.4237,-0.4237,-0.4237,-0.4235,-0.4221,-0.422,-0.4232,-0.4232,-0.4232,0,0,-0.4546,-0.4523,-0.4512,-0.4476,-0.4457,-0.4437,-0.4429,-0.4407,-0.4392,-0.4373,-0.4347,-0.433,-0.4302,-0.4277,-0.4264,-0.4262,-0.423,-0.4236,-0.4236,-0.4234,-0.422,-0.4219,-0.4218,-0.4231,-0.4231,-0.4231,0,0,-0.4539,-0.452,-0.4502,-0.4483,-0.4455,-0.4438,-0.4434,-0.4402,-0.439,-0.4364,-0.4349,-0.433,-0.4291,-0.4272,-0.4257,-0.4243,-0.4233,-0.4236,-0.4237,-0.4223,-0.4222,-0.4221,-0.4216,-0.4214,-0.4235,-0.4235,-0.4235,0,-0.4545,-0.4514,-0.4493,-0.4473,-0.4457,-0.444,-0.4421,-0.4404,-0.4369,-0.4359,-0.4358,-0.4308,-0.4289,-0.4258,-0.4255,-0.4243,-0.4237,-0.424,-0.4224,-0.4223,-0.4221,-0.4216,-0.4214,-0.4235,-0.4235,-0.4235,-0.4235,0,-0.4522,-0.4501,-0.4489,-0.4457,-0.444,-0.4421,-0.4397,-0.4383,-0.4371,-0.4354,-0.4327,-0.4303,-0.4275,-0.4266,-0.4255,-0.4234,-0.4234,-0.4228,-0.4226,-0.4221,-0.4216,-0.4214,-0.4236,-0.4236,-0.4236,-0.4236,0,0,-0.4525,-0.4482,-0.4478,-0.4463,-0.4431,-0.4414,-0.4393,-0.4366,-0.4354,-0.4331,-0.4313,-0.428,-0.4275,-0.4258,-0.4244,-0.4232,-0.4222,-0.4228,-0.4227,-0.4227,-0.4198,-0.4202,-0.42,-0.4215,-0.4215,-0.4214,-0.42,0,-0.4514,-0.4477,-0.4458,-0.4429,-0.4408,-0.4391,-0.4373,-0.4351,-0.4335,-0.4315,-0.4297,-0.4274,-0.4269,-0.4259,-0.4246,-0.4226,-0.4216,-0.4227,-0.4198,-0.4197,-0.4205,-0.4197,-0.4201,-0.4189,-0.4198,-0.4197,-0.4197,0,-0.4496,-0.4473,-0.4442,-0.4412,-0.4403,-0.4387,-0.4361,-0.4342,-0.4316,-0.4305,-0.4287,-0.4273,-0.425,-0.425,-0.4218,-0.4226,-0.4213,-0.4201,-0.42,-0.4196,-0.4197,-0.4193,-0.4185,-0.4183,-0.4193,-0.4194,-0.4194,0,-0.4501,-0.4463,-0.4439,-0.4427,-0.4391,-0.438,-0.4365,-0.434,-0.4325,-0.4301,-0.4291,-0.4265,-0.4251,-0.4232,-0.4211,-0.4213,-0.4181,-0.4179,-0.4171,-0.4171,-0.4165,-0.4166,-0.4154,-0.4157,-0.4157,-0.4157,-0.4157,0,-0.449,-0.4472,-0.4441,-0.4426,-0.4405,-0.4384,-0.4363,-0.4346,-0.4324,-0.4306,-0.4289,-0.4272,-0.4246,-0.4226,-0.4209,-0.4185,-0.4179,-0.4169,-0.4165,-0.4171,-0.4172,-0.4162,-0.4162,-0.4156,-0.4156,-0.4157,-0.4157,0,-0.4492,-0.4471,-0.4444,-0.4413,-0.4404,-0.439,-0.4363,-0.4348,-0.4331,-0.4307,-0.4301,-0.4274,-0.4249,-0.4226,-0.4193,-0.4182,-0.4158,-0.4153,-0.4167,-0.4164,-0.4158,-0.4159,-0.4139,-0.4135,-0.4141,-0.4141,-0.4141,0,-0.4487,-0.4472,-0.4439,-0.4426,-0.4411,-0.439,-0.4374,-0.4352,-0.4337,-0.4307,-0.4295,-0.4269,-0.4247,-0.4209,-0.4186,-0.416,-0.4154,-0.4149,-0.415,-0.4156,-0.4154,-0.4155,-0.4153,-0.4149,-0.4149,-0.4149,-0.4149,0,-0.448,-0.447,-0.4448,-0.4423,-0.4405,-0.4384,-0.4362,-0.4352,-0.4326,-0.431,-0.4284,-0.4267,-0.4234,-0.4208,-0.418,-0.4164,-0.4152,-0.4149,-0.4146,-0.4152,-0.416,-0.4155,-0.4167,-0.415,-0.415,-0.415,-0.415,-0.415,-0.4477,-0.4464,-0.4438,-0.4415,-0.4396,-0.4377,-0.4361,-0.4342,-0.4321,-0.4292,-0.428,-0.4254,-0.4229,-0.419,-0.4174,-0.4153,-0.4151,-0.4146,-0.4145,-0.4144,-0.4145,-0.4164,-0.4148,-0.4148,-0.4148,-0.4148,-0.4148,0,-0.4469,-0.4452,-0.4431,-0.4401,-0.4383,-0.4374,-0.4349,-0.4334,-0.4312,-0.429,-0.4268,-0.4239,-0.4214,-0.4189,-0.4163,-0.4151,-0.4145,-0.4145,-0.4145,-0.4142,-0.4149,-0.4154,-0.415,-0.415,-0.415,-0.415,-0.415,-0.415,-0.4463,-0.4439,-0.4426,-0.4393,-0.4376,-0.4351,-0.4337,-0.4319,-0.4301,-0.4269,-0.4248,-0.4232,-0.4209,-0.4181,-0.4157,-0.415,-0.4141,-0.4143,-0.4134,-0.4141,-0.4141,-0.4141,-0.4146,-0.4141,-0.4141,-0.4129,-0.4129,-0.4129]},{"header":{"parameterUnit":"m.s-1","parameterCategory":1,"la1":30.2991,"la2":30.254,"lo1":-89.0895,"lo2":-89.0444,"dy":0.0017,"dx":0.0017,"nx":28,"ny":28,"refTime":"2024-04-30T03:00:00:Z","depth":0,"parameterNumber":3,"parameterNumberName":"V-component_of_WINDS"},"data":[0,0,0,0,0,0,0,0,0,0,0,0,0,0,0,0,0,0,0,0,0,0,0,0,0,0,0,0,0,0,0,0,0,0,0,0,0,0,0,0,0,0,0,0,0,0,0,0,0,0,0,0,0,0,0,0,0,0,1.8693,1.8693,0,1.8663,1.8663,1.8662,1.8626,1.8626,1.8625,1.8625,1.8593,1.8593,1.8592,0,0,0,0,0,0,0,0,0,0,0,0,0,1.8719,1.8718,1.8693,1.8693,1.8692,1.8663,1.8663,1.8662,1.8626,1.8626,1.8625,1.8624,1.8593,1.8593,1.8592,0,0,0,0,0,0,0,0,0,0,0,0,0,1.87,1.8718,1.8693,1.8671,1.8669,1.8663,1.8663,1.8662,1.8627,1.8626,1.8625,1.8624,1.8593,1.8593,1.8592,1.8606,0,0,1.8591,1.8591,0,0,0,0,0,0,0,0,1.8701,1.8699,1.8675,1.8673,1.867,1.8648,1.866,1.8643,1.8627,1.8643,1.8625,1.8624,1.8612,1.861,1.8606,1.8604,1.8603,1.8591,1.859,1.859,1.859,0,0,0,0,0,0,0,1.8702,1.87,1.8681,1.8674,1.8672,1.8662,1.8659,1.8657,1.8632,1.8641,1.8638,1.8635,1.861,1.8606,1.8605,1.8602,1.8591,1.859,1.859,1.859,1.861,1.861,0,0,0,0,0,0,1.8707,1.8701,1.8682,1.868,1.8684,1.8662,1.8658,1.8656,1.8632,1.8628,1.8636,1.8634,1.8608,1.8605,1.8604,1.8617,1.859,1.859,1.8589,1.8609,1.861,1.8611,0,0,0,0,0,0,1.8708,1.8706,1.8683,1.869,1.8687,1.8663,1.866,1.8655,1.8651,1.8628,1.8624,1.8637,1.8607,1.8604,1.8605,1.8616,1.8589,1.8589,1.8608,1.8609,1.861,1.8646,0,0,0,0,0,0,1.8709,1.8706,1.8711,1.8691,1.8686,1.8686,1.8661,1.8655,1.8651,1.8648,1.8628,1.8624,1.8606,1.8606,1.8605,1.8615,1.8589,1.8607,1.8608,1.861,1.8644,1.8648,1.8652,0,0,0,0,0,1.871,1.8723,1.8712,1.871,1.8692,1.8687,1.8684,1.8664,1.8652,1.8657,1.8642,1.8624,1.8615,1.8607,1.8605,1.8615,1.8606,1.8608,1.861,1.8642,1.8647,1.8652,0,0,0,0,0,0,1.8745,1.8719,1.8707,1.8714,1.8703,1.8681,1.8686,1.8671,1.8663,1.866,1.8635,1.8631,1.8635,1.8625,1.8616,1.8626,1.8608,1.8609,1.8633,1.8638,1.8642,1.8644,1.8588,0,0,0,0,0,1.8754,1.8752,1.8729,1.8737,1.8732,1.871,1.8707,1.8693,1.868,1.8675,1.866,1.8649,1.8643,1.864,1.8633,1.8642,1.8637,1.8647,1.8652,1.8655,1.8657,1.866,1.8665,1.8617,1.8617,1.8617,0,0,1.8772,1.8757,1.8758,1.8744,1.8734,1.8732,1.8707,1.8706,1.8704,1.8675,1.8675,1.8664,1.8649,1.8654,1.8655,1.8645,1.8669,1.8658,1.8661,1.866,1.8663,1.8667,1.8671,1.8618,1.8618,1.8618,0,0,1.8803,1.8792,1.8797,1.8788,1.8772,1.8758,1.8759,1.8739,1.8731,1.873,1.8708,1.8706,1.8696,1.8687,1.8681,1.8708,1.8691,1.8706,1.8728,1.8732,1.8735,1.8739,1.8748,1.8752,1.8708,1.8708,1.8708,0,1.8827,1.8824,1.8802,1.8802,1.8797,1.877,1.8775,1.8767,1.875,1.8747,1.8736,1.8724,1.8712,1.8714,1.8721,1.8717,1.8717,1.8708,1.8737,1.874,1.8742,1.8751,1.8755,1.871,1.871,1.8709,1.8709,0,1.8854,1.8852,1.8858,1.8843,1.8838,1.884,1.8819,1.8816,1.8802,1.8788,1.8788,1.8773,1.8762,1.8762,1.8748,1.8761,1.8756,1.8741,1.8722,1.8749,1.8757,1.876,1.8713,1.8712,1.8711,1.8711,0,0,1.8907,1.888,1.8882,1.8875,1.8856,1.8854,1.8855,1.8845,1.8843,1.8833,1.8833,1.8825,1.8812,1.8805,1.8789,1.8792,1.8814,1.8777,1.8776,1.8784,1.8828,1.8839,1.8844,1.8803,1.8804,1.8804,1.8829,0,1.8935,1.8936,1.8916,1.8923,1.892,1.8895,1.8896,1.8884,1.8871,1.8866,1.8852,1.8847,1.8829,1.8825,1.8827,1.8811,1.8823,1.8809,1.8803,1.8803,1.8807,1.8848,1.886,1.8884,1.8832,1.8833,1.8833,0,1.8968,1.8959,1.8966,1.8946,1.8944,1.8945,1.8935,1.8931,1.8917,1.8907,1.8899,1.8881,1.888,1.8863,1.8861,1.8852,1.8848,1.884,1.884,1.8839,1.882,1.8848,1.8892,1.8896,1.8838,1.8837,1.8837,0,1.9006,1.8996,1.8998,1.8993,1.897,1.8972,1.8962,1.8947,1.8942,1.8933,1.8929,1.8919,1.8914,1.8907,1.8887,1.8876,1.8887,1.8868,1.8879,1.8879,1.8883,1.8883,1.8927,1.888,1.888,1.888,1.888,0,1.904,1.9045,1.9015,1.9017,1.9021,1.8998,1.9003,1.8991,1.8977,1.8976,1.8953,1.8951,1.8925,1.892,1.8904,1.8905,1.8903,1.8895,1.889,1.8897,1.8898,1.8894,1.8892,1.8881,1.888,1.888,1.888,0,1.9084,1.9064,1.9065,1.9043,1.9038,1.9042,1.9023,1.9023,1.9009,1.9007,1.9005,1.8982,1.8975,1.8954,1.8942,1.8932,1.8937,1.8929,1.8942,1.8939,1.8952,1.8951,1.8995,1.9,1.895,1.895,1.8951,0,1.9107,1.911,1.9088,1.9085,1.9077,1.9073,1.9068,1.9045,1.9041,1.9024,1.9026,1.9018,1.901,1.9001,1.8983,1.8973,1.8965,1.8981,1.8963,1.8969,1.8965,1.8965,1.8965,1.8985,1.8985,1.8986,1.8986,0,1.9149,1.9139,1.9133,1.9124,1.9118,1.911,1.9099,1.9098,1.9073,1.9069,1.9062,1.9056,1.9044,1.9036,1.9023,1.9013,1.8995,1.8992,1.8994,1.9001,1.9008,1.9004,1.8953,1.8991,1.8991,1.899,1.899,1.899,1.9183,1.9184,1.9169,1.9163,1.9153,1.9144,1.9143,1.9128,1.9122,1.9111,1.9098,1.9092,1.9077,1.9059,1.9049,1.9045,1.9035,1.9038,1.9039,1.904,1.9043,1.9009,1.9042,1.9042,1.9042,1.9042,1.9042,0,1.9224,1.9213,1.9208,1.9195,1.919,1.9174,1.9161,1.9158,1.9154,1.9142,1.9134,1.9126,1.9118,1.9099,1.9089,1.9088,1.908,1.9087,1.9086,1.9084,1.9052,1.9051,1.9093,1.9093,1.9093,1.9093,1.9093,1.9093,1.9245,1.9247,1.9235,1.9231,1.922,1.9215,1.9209,1.92,1.919,1.9182,1.9176,1.9163,1.9148,1.9137,1.9128,1.9123,1.912,1.9129,1.9121,1.9091,1.9087,1.9082,1.9081,1.9129,1.9129,1.9153,1.9154,1.9154]}]]